Lid_Strength_Index
3 3 3 3 3 4 3 2 5 0 -0 5 5 6 5 7 5 4 5 5 6 6 7 7 7 8 6 5 5 7 6 7 9 8 6 6 6 7 7 11 11 10 10 10
3 3 3 3 3 4 3 3 3 0 1 7 6 5 5 5 5 5 5 6 5 5 6 8 7 6 5 4 5 6 6 8 11 10 8 6 8 7 7 7 8 11 12 11
2 3 3 3 3 3 1 3 5 3 3 3 6 6 7 6 4 5 5 5 5 6 6 6 7 7 5 4 5 5 5 7 9 11 9 8 9 8 7 8 11 10 10 9
2 2 2 3 3 3 1 2 4 4 6 5 5 5 6 6 7 5 4 5 6 6 8 7 7 6 6 5 6 5 5 9 8 8 7 7 8 8 8 8 8 11 9 9
2 2 2 2 3 3 1 4 5 3 4 4 5 6 6 6 6 6 6 6 6 5 7 6 7 6 6 6 5 6 5 9 8 9 8 8 9 8 8 8 8 8 8 8
2 2 2 2 2 2 2 1 1 3 5 5 6 6 6 6 5 5 4 5 6 6 5 4 4 4 4 4 6 6 7 8 10 12 8 8 10 8 8 7 7 7 9 7
2 2 2 2 2 2 1 1 2 4 6 5 5 5 5 6 5 6 4 4 5 4 2 3 3 4 4 4 5 4 7 8 9 11 10 15 8 6 6 7 7 6 6 6
2 2 2 2 2 2 1 0 2 4 6 5 5 5 5 4 4 5 5 4 3 2 4 6 7 7 7 6 5 5 5 7 10 13 13 10 8 7 7 8 8 5 6 5
2 2 2 3 2 2 1 0 -0 2 5 5 4 5 4 6 5 5 4 3 2 3 5 7 10 11 9 10 9 6 6 6 10 11 14 16 9 6 5 5 11 5 5 5
2 2 2 3 2 2 1 1 -1 2 5 3 3 5 5 4 4 6 4 4 4 3 7 8 9 10 7 11 11 10 10 10 12 13 13 12 8 6 5 13 11 6 6 6
2 2 3 3 2 2 2 1 -1 2 4 3 3 3 4 4 4 6 5 5 5 6 8 8 8 9 8 9 8 9 10 12 13 13 15 17 7 7 12 8 6 6 6 6
2 2 3 3 2 2 2 2 -1 -0 3 3 1 1 1 2 2 4 4 5 5 5 7 7 7 8 8 8 12 7 12 11 12 12 13 7 6 8 7 7 7 6 5 4
2 2 3 3 2 2 2 3 0 1 3 3 3 3 1 -0 0 0 5 4 3 3 3 5 6 8 7 11 12 10 9 7 11 10 9 8 8 7 7 6 7 6 5 5
3 2 3 3 3 3 3 3 -0 1 3 5 5 0 2 0 -0 1 1 2 2 2 3 5 8 9 7 11 10 11 10 9 10 9 7 6 6 6 8 8 7 6 6 5
3 4 3 3 3 3 3 1 -1 -1 3 6 5 2 1 0 1 2 1 2 3 5 7 7 8 7 7 7 7 9 6 8 9 10 6 7 6 4 4 5 6 6 7 7
4 4 4 3 3 3 0 3 -0 -1 -0 4 7 2 2 1 1 2 2 2 3 3 6 6 6 5 6 8 10 7 6 5 4 6 4 4 4 3 3 4 5 5 5 6
4 4 4 4 3 1 2 4 1 1 -1 4 6 7 3 2 2 2 3 2 3 3 3 5 4 5 5 9 10 5 4 4 4 4 4 5 4 5 4 4 3 4 4 5
5 5 4 3 3 3 2 0 1 1 2 3 7 6 5 2 4 6 2 4 2 3 3 3 4 4 5 9 6 4 4 4 4 5 5 4 4 3 3 3 4 5 6 5
5 4 3 1 2 2 2 2 3 -0 2 6 5 8 8 2 4 4 4 3 5 3 4 5 5 5 8 6 6 5 5 6 6 6 6 5 6 5 4 4 5 5 7 7
5 3 2 4 2 3 1 2 3 3 3 3 6 4 7 3 4 7 6 4 6 10 6 3 7 8 5 4 4 4 5 5 6 8 9 7 8 6 5 5 5 5 6 6
3 4 3 3 2 1 3 6 6 5 7 5 5 6 6 3 6 6 5 6 5 11 8 8 8 9 7 4 4 4 5 5 7 7 7 7 7 6 6 5 4 5 5 5
6 6 6 4 3 5 7 7 6 6 8 5 5 5 4 4 3 7 6 7 6 11 4 7 10 8 5 5 5 5 6 7 7 7 8 9 8 6 6 4 4 5 5 5
3 6 5 4 5 11 9 10 8 7 5 5 4 6 4 4 4 5 5 8 9 5 9 8 8 6 5 5 5 5 6 7 7 7 8 8 8 7 6 5 6 6 6 7
4 5 12 7 8 7 7 7 6 4 4 4 4 5 5 4 5 5 8 6 6 9 10 10 7 6 6 5 6 6 7 6 7 7 8 9 9 10 9 9 9 9 9 10
5 5 11 6 4 4 4 3 4 3 3 4 5 4 4 5 6 5 7 9 10 8 9 7 6 6 6 6 7 7 7 6 6 6 7 8 8 9 10 10 10 10 10 10
4 5 6 4 5 6 5 4 5 3 3 3 3 5 6 6 5 8 9 10 10 8 6 5 6 6 6 7 6 6 6 7 6 7 6 7 8 8 9 9 9 10 10 11
6 6 3 4 3 4 5 4 4 2 5 6 5 9 8 5 7 8 6 8 6 5 4 4 5 5 7 6 6 7 7 7 7 7 7 7 6 6 7 8 8 8 8 8